Regional Weather Roundup
Issued by NWS

Home | Current Version | Previous Version | Text Only | Print | Product List | Glossary Off
Versions: 1 2 3 4 5 6 7 8 9 10 11 12 13 14 15 16 17 18 19 20 21 22 23 24 25 26 27

000
ASUS45 KCYS 272010
RWRWY

WYOMING REGIONAL WEATHER ROUNDUP
NATIONAL WEATHER SERVICE CHEYENNE WY
200 PM MDT TUE JUN 27 2017

NOTE:  "FAIR" INDICATES FEW OR NO CLOUDS BELOW 12,000 FEET
WITH NO SIGNIFICANT WEATHER AND/OR OBSTRUCTIONS TO VISIBILITY.

WYZ001-272100-
YELLOWSTONE NATIONAL PARK

CITY           SKY/WX    TMP DP  RH WIND       PRES   REMARKS
LK YELLOWSTONE   N/A     54  45  71 VRB5      30.11F
W YELLOWSTONE  NOT AVBL

$$
WYZ002>013-054>058-071-098>099-272100-
NORTHERN WYOMING

CITY           SKY/WX    TMP DP  RH WIND       PRES   REMARKS
JACKSON        SUNNY     64  46  52 N12G23    30.05F
CODY           LGT RAIN  58  44  60 SW14G28   29.95R
GREYBULL       FAIR      84  42  22 NW23G29   29.77R
WORLAND        PTSUNNY   73  42  32 NW51G69   29.83R HAZE
SHERIDAN       FAIR      76  50  40 NW17      29.81R
BUFFALO        FAIR      76  46  34 N20G26    29.85R
GILLETTE       FAIR      85  43  22 VRB7      29.76F
NEWCASTLE      FAIR      86  43  22 NW15G21   29.76S

$$
WYZ014>020-022>026-101>103-272100-
CENTRAL WYOMING

CITY           SKY/WX    TMP DP  RH WIND       PRES   REMARKS
BIG PINEY      PTSUNNY   65  40  39 NW24G33   30.06R THUNDER
PINEDALE       CLOUDY    63  39  42 NW25G38   30.07R
DUBOIS         CLOUDY    48  39  71 W12       30.10F
LANDER         FAIR      80  35  19 NW8       29.89S
RIVERTON       FAIR      82  34  17 VRB7G18   29.87F
CASPER         NOT AVBL
DOUGLAS        FAIR      90  40  17 W20G25    29.80F

$$
WYZ021-027>030-104>119-272100-
SOUTHERN WYOMING

CITY           SKY/WX    TMP DP  RH WIND       PRES   REMARKS
EVANSTON       FAIR      77  38  24 W26G36    30.10F
KEMMERER         N/A     75  27  16 W32G43    30.08F
FORT BRIDGER   FAIR      80  33  17 W24G40    30.10S
ROCK SPRINGS   FAIR      81  32  17 W20G32    30.02F
DIXON          FAIR      85  29  13 W12G24    30.03F
RAWLINS        FAIR      80  33  18 NW18G36   30.02R
SARATOGA       FAIR      79  34  19 MISG      30.04R
LARAMIE        FAIR      86  24  10 W21G40    29.98F
CHEYENNE       FAIR      91  26   9 W26G37    29.88F
TORRINGTON     FAIR      89  40  17 CALM      29.72F
PINE BLUFFS    FAIR      88  36  15 SW6G23    29.82S

$$




USA.gov is the U.S. government's official web portal to all federal, state and local government web resources and services.